Meknes, Morocco

5:41 PM WET on March 25, 2017 (GMT +0000)
Meknes

Weather History for GMFM - April, 2013

Change the Weather History Date:

Friday, April 26, 2013

  Actual Average (GMFF) Record (GMFF)
Temperature  
Mean Temperature 61 °F -  
Max Temperature 75 °F 74 °F 89 °F (2008)
Min Temperature 47 °F 52 °F 41 °F (2014)
Degree Days  
Heating Degree Days 4    
Growing Degree Days 11 (Base 50)    
Moisture  
Dew Point 48 °F    
Average Humidity 61    
Maximum Humidity 94    
Minimum Humidity 27    
Precipitation  
Precipitation 0.00 in 0.06 in - ()
Sea Level Pressure  
Sea Level Pressure 30.02 in    
Wind  
Wind Speed 5 mph ()    
Max Wind Speed 10 mph    
Max Gust Speed -    
Visibility 6.1 miles    
Events      
Averages and records for this station are not official NWS values.
T = Trace of Precipitation, MM = Missing Value Source: Averaged Metar Reports

Daily Weather History Graph

Daily Weather History Graph

Search for Another Location

Airport or City:

Trip Planner

Search our weather history database for the weather conditions in past years. The results will help you decide how hot, cold, wet, or windy it might be!

Date:

Astronomy

Apr. 26, 2013 Rise Set
Actual Time 5:38 AM WET 7:01 PM WET
Civil Twilight 5:12 AM WET 7:28 PM WET
Nautical Twilight 4:40 AM WET 7:59 PM WET
Astronomical Twilight 4:07 AM WET 8:32 PM WET
Moon 8:05 PM WET (4/26) 5:56 AM WET (4/26)
Length of Visible Light 14h 16m
Length of Day
13h 23m
Full, 99% of the Moon is Illuminated
Apr 26
Full
May 2
Last Quarter
May 10
New
May 18
First Quarter
May 25
Full

Hourly Weather History & Observations

Time (WET) Temp. Dew Point Humidity Pressure Visibility Wind Dir Wind Speed Gust Speed Precip Events Conditions
12:00 AM 52 °F 45 °F 68% 30.05 in 6 mi West 4.6 mph - -  
12:00 AM 51.8 °F 44.6 °F 76% 30.04 in - West 4.6 mph - N/A   Clear
1:00 AM 51.8 °F 44.6 °F 76% 30.04 in - WSW 3.5 mph - N/A   Clear
2:00 AM 51.8 °F 44.6 °F 76% 30.04 in - WSW 3.5 mph - N/A   Clear
3:00 AM 51 °F 43 °F 65% 30.02 in 6 mi WSW 3.5 mph - -  
3:00 AM 51.8 °F 44.6 °F 76% 30.04 in - SSW 3.5 mph - N/A   Clear
4:00 AM 51.8 °F 44.6 °F 76% 30.04 in - South 4.6 mph - N/A   Clear
5:00 AM 51.8 °F 44.6 °F 76% 30.01 in - SW 5.8 mph - N/A   Clear
6:00 AM 51 °F 43 °F 66% 30.03 in 6 mi South 3.5 mph - -   Scattered Clouds
6:00 AM 51.8 °F 42.8 °F 71% 30.04 in - South 3.5 mph - N/A   Clear
7:00 AM 55.4 °F 42.8 °F 63% 30.04 in - South 4.6 mph - N/A   Clear
8:00 AM 60.8 °F 46.4 °F 59% 30.04 in - SSW 4.6 mph - N/A   Clear
9:00 AM 66 °F 46 °F 37% 29.99 in 6 mi West 5.8 mph - -   Scattered Clouds
9:00 AM 66.2 °F 46.4 °F 49% 30.04 in 6.2 mi West 5.8 mph - N/A   Partly Cloudy
10:00 AM 68.0 °F 46.4 °F 46% 30.04 in 6.2 mi WNW 4.6 mph - N/A   Partly Cloudy
11:00 AM 71.6 °F 48.2 °F 43% 30.04 in 6.2 mi WNW 6.9 mph - N/A   Partly Cloudy
12:00 PM 71 °F 46 °F 30% 29.97 in 6 mi WNW 6.9 mph - -   Partly Cloudy
12:00 PM 71.6 °F 46.4 °F 41% 30.04 in 6.2 mi WNW 6.9 mph - N/A   Scattered Clouds
1:00 PM 73.4 °F 46.4 °F 38% 30.04 in 6.2 mi NNW 5.8 mph - N/A   Scattered Clouds
2:00 PM 73.4 °F 46.4 °F 38% 30.01 in 6.2 mi WNW 5.8 mph - N/A   Scattered Clouds
3:00 PM 74 °F 47 °F 27% 29.92 in 6 mi NNW 8.1 mph - -   Partly Cloudy
3:00 PM 73.4 °F 46.4 °F 38% 30.01 in 6.2 mi NNW 8.1 mph - N/A   Scattered Clouds
4:00 PM 75.2 °F 48.2 °F 38% 30.01 in 6.2 mi WNW 5.8 mph - N/A   Mostly Cloudy
5:00 PM 69.8 °F 53.6 °F 56% 30.01 in 6.2 mi NNW 9.2 mph - N/A   Scattered Clouds
6:00 PM 69 °F 54 °F 48% 29.93 in 6 mi NW 10.4 mph - -   Partly Cloudy
6:00 PM 68.0 °F 53.6 °F 60% 30.01 in 6.2 mi NW 10.4 mph - N/A   Scattered Clouds
7:00 PM 64.4 °F 55.4 °F 73% 30.01 in 6.2 mi NW 9.2 mph - N/A   Partly Cloudy
8:00 PM 62.6 °F 55.4 °F 77% 30.01 in 6.2 mi NW 6.9 mph - N/A   Partly Cloudy
9:00 PM 59 °F 55 °F 83% 30.00 in 6 mi WNW 2.3 mph - -   Scattered Clouds
9:00 PM 59.0 °F 55.4 °F 88% 30.04 in 6.2 mi WNW 2.3 mph - N/A   Partly Cloudy
10:00 PM 57.2 °F 55.4 °F 94% 30.01 in 6.2 mi Calm Calm - N/A   Scattered Clouds
11:00 PM 55.4 °F 51.8 °F 88% 30.01 in 6.2 mi Calm Calm - N/A   Scattered Clouds